[[{"header":{"parameterUnit":"m.s-1","parameterCategory":1,"la1":30.2992,"la2":30.254,"lo1":-89.0895,"lo2":-89.0443,"dy":0.0025,"dx":0.0025,"nx":19,"ny":19,"refTime":"2026-04-21T03:00:00:Z","depth":0,"parameterNumber":2,"parameterNumberName":"U-component_of_WINDS"},"data":[0,0,0,-2.5295,-2.5295,-2.5289,-2.5288,-2.53,-2.5301,0,0,0,0,0,0,0,0,0,0,0,-2.5307,-2.5307,-2.5295,-2.5295,-2.5289,-2.5288,-2.53,-2.5301,0,0,0,0,0,0,0,0,0,0,0,-2.5306,-2.5307,-2.5307,-2.5295,-2.5289,-2.5288,-2.53,-2.5298,0,0,0,0,0,0,0,0,0,0,-2.5301,-2.5321,-2.5307,-2.5307,-2.5295,-2.5289,-2.5288,-2.5298,-2.5298,-2.5311,0,-2.5323,0,-2.5312,-2.5302,-2.5303,0,0,0,-2.5288,-2.5321,-2.531,-2.5307,-2.5295,-2.5289,-2.5289,-2.5298,-2.5299,-2.5312,-2.5323,-2.5323,-2.5312,-2.5303,-2.5303,-2.5398,-2.5399,0,0,-2.5288,-2.5311,-2.531,-2.5311,-2.5311,-2.529,-2.5289,-2.5298,-2.5313,-2.5323,-2.5323,-2.5313,-2.5303,-2.5303,-2.5397,-2.5398,0,0,0,-2.5294,-2.5312,-2.53,-2.5311,-2.5308,-2.529,-2.5289,-2.5312,-2.5306,-2.5323,-2.5313,-2.5303,-2.5303,-2.5397,-2.5398,-2.5462,0,0,0,-2.5294,-2.5315,-2.5301,-2.5315,-2.5308,-2.531,-2.5304,-2.5306,-2.5306,-2.5313,-2.5303,-2.5304,-2.5396,-2.5397,-2.5458,-2.5489,0,0,0,-2.5304,-2.5316,-2.5318,-2.5316,-2.5314,-2.5309,-2.5304,-2.5305,-2.53,-2.5303,-2.5304,-2.5395,-2.5397,-2.5454,-2.5483,-2.5524,0,0,0,-2.5321,-2.5373,-2.532,-2.5374,-2.5314,-2.5347,-2.5303,-2.5326,-2.5336,-2.5303,-2.5396,-2.5398,-2.5453,-2.548,-2.5521,-2.5566,-2.5585,0,0,-2.54,-2.5383,-2.5413,-2.5366,-2.5414,-2.5346,-2.5404,-2.5391,-2.5369,-2.539,-2.5392,-2.5459,-2.5483,-2.5523,-2.568,-2.5696,0,0,0,-2.5447,-2.5469,-2.5477,-2.5487,-2.5478,-2.5474,-2.5449,-2.5444,-2.5461,-2.5384,-2.5482,-2.5495,-2.5518,-2.5539,-2.5552,-2.5573,-2.5407,-2.5407,-2.5406,-2.5593,-2.5564,-2.5613,-2.5584,-2.5595,-2.5569,-2.5577,-2.5567,-2.5532,-2.5556,-2.5564,-2.5662,-2.5687,-2.5697,-2.5718,-2.5581,-2.5581,-2.5581,-2.5582,-2.571,-2.5739,-2.5694,-2.5726,-2.5696,-2.5723,-2.5702,-2.5678,-2.5701,-2.5653,-2.5672,-2.5626,-2.5715,-2.5733,-2.5586,-2.5585,-2.5585,-2.5584,-2.5584,-2.5806,-2.5816,-2.5809,-2.5823,-2.5837,-2.5805,-2.583,-2.58,-2.5772,-2.579,-2.5798,-2.5797,-2.5796,-2.5795,-2.5796,-2.5796,-2.5796,-2.5797,-2.5797,-2.5911,-2.5901,-2.5926,-2.5922,-2.5926,-2.5928,-2.5905,-2.5909,-2.5906,-2.5883,-2.5883,-2.5851,-2.5727,-2.57,-2.5802,-2.5801,-2.58,-2.58,-2.58,-2.6048,-2.6013,-2.605,-2.6055,-2.605,-2.6069,-2.6029,-2.6042,-2.604,-2.6055,-2.6017,-2.5929,-2.5911,-2.59,-2.5878,-2.602,-2.602,-2.602,-2.602,-2.6133,-2.612,-2.6154,-2.6164,-2.617,-2.6139,-2.6188,-2.6171,-2.6148,-2.6147,-2.612,-2.6086,-2.6076,-2.6064,-2.605,-2.6029,-2.6206,-2.6206,-2.6207,-2.6218,-2.6205,-2.6251,-2.6227,-2.6221,-2.6218,-2.6264,-2.628,-2.6246,-2.6214,-2.6146,-2.6138,-2.6083,-2.6065,-2.6035,-2.6013,-2.5973,0,0]},{"header":{"parameterUnit":"m.s-1","parameterCategory":1,"la1":30.2992,"la2":30.254,"lo1":-89.0895,"lo2":-89.0443,"dy":0.0025,"dx":0.0025,"nx":19,"ny":19,"refTime":"2026-04-21T03:00:00:Z","depth":0,"parameterNumber":3,"parameterNumberName":"V-component_of_WINDS"},"data":[0,0,0,0.5112,0.5111,0.504,0.504,0.4959,0.4959,0,0,0,0,0,0,0,0,0,0,0,0.5142,0.5142,0.5112,0.5111,0.5041,0.504,0.496,0.4959,0,0,0,0,0,0,0,0,0,0,0,0.5142,0.5142,0.5141,0.5111,0.5041,0.504,0.496,0.5009,0,0,0,0,0,0,0,0,0,0,0.5075,0.5112,0.5142,0.5141,0.511,0.5041,0.504,0.5011,0.5006,0.4996,0,0.4993,0,0.4975,0.4954,0.4954,0,0,0,0.5103,0.5116,0.509,0.5141,0.511,0.5041,0.507,0.5008,0.5002,0.499,0.4992,0.4989,0.4974,0.4954,0.4954,0.4932,0.4932,0,0,0.5107,0.5133,0.5094,0.5086,0.5101,0.5072,0.5068,0.5004,0.5007,0.4992,0.4986,0.4972,0.4953,0.4953,0.4931,0.4932,0,0,0,0.5123,0.5136,0.5111,0.509,0.5077,0.5071,0.5065,0.501,0.5,0.4985,0.4972,0.4953,0.4952,0.4931,0.4931,0.4969,0,0,0,0.5125,0.5145,0.5113,0.5128,0.5079,0.5043,0.5073,0.5004,0.4996,0.4972,0.4953,0.4952,0.4931,0.4931,0.4967,0.4981,0,0,0,0.5143,0.5147,0.5141,0.5129,0.5101,0.5044,0.503,0.5002,0.4988,0.4954,0.4951,0.4931,0.4931,0.4966,0.4979,0.4982,0,0,0,0.5169,0.5174,0.5142,0.5142,0.5101,0.5069,0.503,0.5003,0.4979,0.4953,0.4931,0.4931,0.4965,0.4977,0.4981,0.4988,0.4995,0,0,0.5189,0.5177,0.5175,0.5144,0.5125,0.5078,0.5062,0.5013,0.4985,0.495,0.4949,0.4968,0.4978,0.4982,0.5025,0.503,0,0,0,0.519,0.5188,0.5178,0.5157,0.5123,0.5093,0.5045,0.5027,0.4997,0.4974,0.497,0.4975,0.4976,0.4978,0.4983,0.4981,0.4934,0.4934,0.4934,0.5253,0.522,0.5213,0.5171,0.5152,0.5103,0.5083,0.505,0.502,0.5019,0.5008,0.5039,0.5042,0.5046,0.5044,0.5011,0.5011,0.5011,0.5011,0.5278,0.527,0.5233,0.5213,0.5176,0.5158,0.5111,0.509,0.5066,0.5044,0.5043,0.502,0.5053,0.5049,0.5014,0.5013,0.5013,0.5013,0.5013,0.5314,0.5304,0.5285,0.5252,0.5229,0.5186,0.5165,0.5132,0.51,0.51,0.5083,0.5082,0.5075,0.5095,0.5095,0.5095,0.5095,0.5095,0.5095,0.5359,0.5335,0.5323,0.5288,0.5271,0.5243,0.5195,0.5175,0.5145,0.5122,0.5122,0.5091,0.5063,0.5056,0.5097,0.5096,0.5096,0.5096,0.5096,0.5392,0.538,0.5361,0.5344,0.5299,0.5279,0.5238,0.5202,0.5181,0.5171,0.5141,0.5127,0.5111,0.5107,0.5101,0.515,0.515,0.515,0.515,0.5421,0.5411,0.5385,0.5359,0.533,0.5292,0.5269,0.5232,0.519,0.5174,0.5163,0.5152,0.515,0.5135,0.5131,0.5124,0.5178,0.5178,0.5178,0.5439,0.5425,0.5413,0.5376,0.5338,0.5306,0.5283,0.5253,0.5203,0.5178,0.5161,0.516,0.5142,0.5139,0.5111,0.5105,0.5092,0,0]}]]